contact:dominique.lefevre@mio.osupytheas.fr, maurice.libes@osupytheas.fr, didier.mallarino@osupytheas.fr
Project:EMSO http://www.emso-fr.org/EMSO-France
Depth: 2436.0 m
Title:EMSO Ligure Ouest : Data MII capteur MICROCAT
DateTime_Computer,Latitude,Longitude,Temperature,Conductivity,Pressure,DateTime_Instrument
DateTime_Computer,Latitude,Longitude,degC,S m-1,dbar,DateTime_Instrument
2023-08-01T00:02:11Z,42.805,6.029,13.3063,4.60131,2470.637,2023-8-01T02:04:29Z
2023-08-01T00:05:14Z,42.805,6.029,13.3061,4.60170,2470.591,2023-8-01T02:07:32Z
2023-08-01T00:08:17Z,42.805,6.029,13.3069,4.60157,2470.6,2023-8-01T02:10:35Z
2023-08-01T00:11:20Z,42.805,6.029,13.3054,4.60151,2470.577,2023-8-01T02:13:38Z
2023-08-01T00:14:23Z,42.805,6.029,13.3058,4.60140,2470.6,2023-8-01T02:16:41Z
2023-08-01T00:17:26Z,42.805,6.029,13.3061,4.60127,2470.637,2023-8-01T02:19:44Z
2023-08-01T00:20:29Z,42.805,6.029,13.3056,4.60143,2470.614,2023-8-01T02:22:47Z
2023-08-01T00:23:32Z,42.805,6.029,13.3056,4.60119,2470.6,2023-8-01T02:25:50Z
2023-08-01T00:26:35Z,42.805,6.029,13.3052,4.60134,2470.661,2023-8-01T02:28:53Z
2023-08-01T00:29:38Z,42.805,6.029,13.3048,4.60146,2470.6,2023-8-01T02:31:56Z
2023-08-01T00:32:41Z,42.805,6.029,13.3039,4.60091,2470.624,2023-8-01T02:34:59Z
2023-08-01T00:35:44Z,42.805,6.029,13.3048,4.60106,2470.6,2023-8-01T02:38:03Z
2023-08-01T00:38:47Z,42.805,6.029,13.3039,4.60130,2470.614,2023-8-01T02:41:06Z
2023-08-01T00:41:51Z,42.805,6.029,13.3035,4.60092,2470.614,2023-8-01T02:44:09Z
2023-08-01T00:44:54Z,42.805,6.029,13.3032,4.60094,2470.586,2023-8-01T02:47:12Z
2023-08-01T00:47:57Z,42.805,6.029,13.3030,4.60093,2470.614,2023-8-01T02:50:15Z
2023-08-01T00:51:00Z,42.805,6.029,13.3031,4.60088,2470.586,2023-8-01T02:53:18Z
2023-08-01T00:54:03Z,42.805,6.029,13.3034,4.60088,2470.591,2023-8-01T02:56:21Z
2023-08-01T00:57:06Z,42.805,6.029,13.3028,4.60101,2470.6,2023-8-01T02:59:24Z
2023-08-01T01:00:09Z,42.805,6.029,13.3031,4.60089,2470.577,2023-8-01T03:02:27Z
2023-08-01T01:03:12Z,42.805,6.029,13.3054,4.60097,2470.591,2023-8-01T03:05:30Z
2023-08-01T01:06:15Z,42.805,6.029,13.3039,4.60091,2470.553,2023-8-01T03:08:33Z
2023-08-01T01:09:18Z,42.805,6.029,13.3032,4.60089,2470.6,2023-8-01T03:11:36Z
2023-08-01T01:12:21Z,42.805,6.029,13.3038,4.60106,2470.577,2023-8-01T03:14:39Z
2023-08-01T01:15:24Z,42.805,6.029,13.3035,4.60092,2470.591,2023-8-01T03:17:42Z
2023-08-01T01:18:27Z,42.805,6.029,13.3028,4.60088,2470.591,2023-8-01T03:20:46Z
2023-08-01T01:21:31Z,42.805,6.029,13.3034,4.60088,2470.577,2023-8-01T03:23:49Z
2023-08-01T01:24:34Z,42.805,6.029,13.3029,4.60089,2470.591,2023-8-01T03:26:52Z
2023-08-01T01:27:37Z,42.805,6.029,13.3027,4.60090,2470.591,2023-8-01T03:29:55Z
2023-08-01T01:30:40Z,42.805,6.029,13.3034,4.60088,2470.577,2023-8-01T03:32:58Z
2023-08-01T01:33:43Z,42.805,6.029,13.3030,4.60093,2470.553,2023-8-01T03:36:01Z
2023-08-01T01:36:46Z,42.805,6.029,13.3028,4.60094,2470.553,2023-8-01T03:39:04Z
2023-08-01T01:39:49Z,42.805,6.029,13.3029,4.60089,2470.577,2023-8-01T03:42:07Z
2023-08-01T01:42:52Z,42.805,6.029,13.3028,4.60088,2470.591,2023-8-01T03:45:10Z
2023-08-01T01:45:55Z,42.805,6.029,13.3031,4.60089,2470.553,2023-8-01T03:48:13Z
2023-08-01T01:48:58Z,42.805,6.029,13.3027,4.60089,2470.553,2023-8-01T03:51:16Z
2023-08-01T01:52:01Z,42.805,6.029,13.3029,4.60089,2470.553,2023-8-01T03:54:19Z
2023-08-01T01:55:04Z,42.805,6.029,13.3032,4.60090,2470.553,2023-8-01T03:57:22Z
2023-08-01T01:58:07Z,42.805,6.029,13.3031,4.60087,2470.577,2023-8-01T04:00:26Z
2023-08-01T02:01:10Z,42.805,6.029,13.3025,4.60087,2470.53,2023-8-01T04:03:29Z
2023-08-01T02:04:14Z,42.805,6.029,13.3030,4.60092,2470.553,2023-8-01T04:06:32Z
2023-08-01T02:07:17Z,42.805,6.029,13.3029,4.60092,2470.591,2023-8-01T04:09:35Z
2023-08-01T02:10:20Z,42.805,6.029,13.3027,4.60088,2470.553,2023-8-01T04:12:38Z
2023-08-01T02:13:23Z,42.805,6.029,13.3030,4.60091,2470.544,2023-8-01T04:15:41Z
2023-08-01T02:16:26Z,42.805,6.029,13.3032,4.60087,2470.577,2023-8-01T04:18:44Z
2023-08-01T02:19:29Z,42.805,6.029,13.3025,4.60092,2470.53,2023-8-01T04:21:47Z
2023-08-01T02:22:32Z,42.805,6.029,13.3029,4.60091,2470.591,2023-8-01T04:24:50Z
2023-08-01T02:25:35Z,42.805,6.029,13.3027,4.60088,2470.6,2023-8-01T04:27:53Z
2023-08-01T02:28:38Z,42.805,6.029,13.3026,4.60087,2470.577,2023-8-01T04:30:56Z
2023-08-01T02:31:41Z,42.805,6.029,13.3029,4.60093,2470.53,2023-8-01T04:33:59Z
2023-08-01T02:34:44Z,42.805,6.029,13.3026,4.60088,2470.614,2023-8-01T04:37:02Z
2023-08-01T02:37:47Z,42.805,6.029,13.3032,4.60089,2470.553,2023-8-01T04:40:06Z
2023-08-01T02:40:50Z,42.805,6.029,13.3029,4.60089,2470.577,2023-8-01T04:43:09Z
2023-08-01T02:43:54Z,42.805,6.029,13.3030,4.60087,2470.591,2023-8-01T04:46:12Z
2023-08-01T02:46:57Z,42.805,6.029,13.3029,4.60088,2470.567,2023-8-01T04:49:15Z
2023-08-01T02:50:00Z,42.805,6.029,13.3031,4.60087,2470.591,2023-8-01T04:52:18Z
2023-08-01T02:53:03Z,42.805,6.029,13.3026,4.60087,2470.6,2023-8-01T04:55:21Z
2023-08-01T02:56:06Z,42.805,6.029,13.3033,4.60087,2470.591,2023-8-01T04:58:24Z
2023-08-01T02:59:09Z,42.805,6.029,13.3029,4.60092,2470.591,2023-8-01T05:01:27Z
2023-08-01T03:02:12Z,42.805,6.029,13.3027,4.60088,2470.577,2023-8-01T05:04:30Z
2023-08-01T03:05:15Z,42.805,6.029,13.3026,4.60090,2470.577,2023-8-01T05:07:33Z
2023-08-01T03:08:18Z,42.805,6.029,13.3033,4.60089,2470.624,2023-8-01T05:10:36Z
2023-08-01T03:11:21Z,42.805,6.029,13.3031,4.60094,2470.591,2023-8-01T05:13:39Z
2023-08-01T03:14:24Z,42.805,6.029,13.3028,4.60089,2470.6,2023-8-01T05:16:42Z
2023-08-01T03:17:27Z,42.805,6.029,13.3028,4.60087,2470.577,2023-8-01T05:19:46Z
2023-08-01T03:20:30Z,42.805,6.029,13.3029,4.60087,2470.577,2023-8-01T05:22:49Z
2023-08-01T03:23:34Z,42.805,6.029,13.3034,4.60090,2470.614,2023-8-01T05:25:52Z
2023-08-01T03:26:37Z,42.805,6.029,13.3031,4.60092,2470.577,2023-8-01T05:28:55Z
2023-08-01T03:29:40Z,42.805,6.029,13.3029,4.60088,2470.577,2023-8-01T05:31:58Z
2023-08-01T03:32:43Z,42.805,6.029,13.3028,4.60088,2470.6,2023-8-01T05:35:01Z
2023-08-01T03:35:46Z,42.805,6.029,13.3032,4.60088,2470.624,2023-8-01T05:38:04Z
2023-08-01T03:38:49Z,42.805,6.029,13.3029,4.60094,2470.577,2023-8-01T05:41:07Z
2023-08-01T03:41:52Z,42.805,6.029,13.3029,4.60089,2470.6,2023-8-01T05:44:10Z
2023-08-01T03:44:55Z,42.805,6.029,13.3030,4.60092,2470.637,2023-8-01T05:47:13Z
2023-08-01T03:47:58Z,42.805,6.029,13.3028,4.60091,2470.614,2023-8-01T05:50:16Z
2023-08-01T03:51:01Z,42.805,6.029,13.3032,4.60090,2470.6,2023-8-01T05:53:19Z
2023-08-01T03:54:04Z,42.805,6.029,13.3032,4.60091,2470.6,2023-8-01T05:56:22Z
2023-08-01T03:57:07Z,42.805,6.029,13.3034,4.60089,2470.624,2023-8-01T05:59:26Z
2023-08-01T04:00:10Z,42.805,6.029,13.3034,4.60090,2470.637,2023-8-01T06:02:29Z
2023-08-01T04:03:14Z,42.805,6.029,13.3028,4.60092,2470.6,2023-8-01T06:05:32Z
2023-08-01T04:06:17Z,42.805,6.029,13.3029,4.60089,2470.637,2023-8-01T06:08:35Z
2023-08-01T04:09:20Z,42.805,6.029,13.3029,4.60090,2470.646,2023-8-01T06:11:38Z
2023-08-01T04:12:23Z,42.805,6.029,13.3033,4.60093,2470.624,2023-8-01T06:14:41Z
2023-08-01T04:15:26Z,42.805,6.029,13.3030,4.60089,2470.624,2023-8-01T06:17:44Z
2023-08-01T04:18:29Z,42.805,6.029,13.3032,4.60098,2470.646,2023-8-01T06:20:47Z
2023-08-01T04:21:32Z,42.805,6.029,13.3031,4.60092,2470.646,2023-8-01T06:23:50Z
2023-08-01T04:24:35Z,42.805,6.029,13.3032,4.60093,2470.67,2023-8-01T06:26:53Z
2023-08-01T04:27:38Z,42.805,6.029,13.3033,4.60093,2470.684,2023-8-01T06:29:56Z
2023-08-01T04:30:41Z,42.805,6.029,13.3036,4.60112,2470.684,2023-8-01T06:32:59Z
2023-08-01T04:33:44Z,42.805,6.029,13.3054,4.60110,2470.661,2023-8-01T06:36:02Z
2023-08-01T04:36:47Z,42.805,6.029,13.3053,4.60118,2470.637,2023-8-01T06:39:05Z
2023-08-01T04:39:50Z,42.805,6.029,13.3040,4.60108,2470.646,2023-8-01T06:42:09Z
2023-08-01T04:42:54Z,42.805,6.029,13.3046,4.60104,2470.684,2023-8-01T06:45:12Z
2023-08-01T04:45:57Z,42.805,6.029,13.3041,4.60093,2470.67,2023-8-01T06:48:15Z
2023-08-01T04:49:00Z,42.805,6.029,13.3039,4.60095,2470.646,2023-8-01T06:51:18Z
2023-08-01T04:52:03Z,42.805,6.029,13.3051,4.60106,2470.646,2023-8-01T06:54:21Z
2023-08-01T04:55:06Z,42.805,6.029,13.3029,4.60089,2470.67,2023-8-01T06:57:24Z
2023-08-01T04:58:09Z,42.805,6.029,13.3042,4.60108,2470.67,2023-8-01T07:00:27Z
2023-08-01T05:01:12Z,42.805,6.029,13.3053,4.60107,2470.707,2023-8-01T07:03:30Z
2023-08-01T05:04:15Z,42.805,6.029,13.3053,4.60102,2470.661,2023-8-01T07:06:33Z
2023-08-01T05:07:18Z,42.805,6.029,13.3050,4.60110,2470.67,2023-8-01T07:09:36Z
2023-08-01T05:10:21Z,42.805,6.029,13.3056,4.60112,2470.693,2023-8-01T07:12:39Z
2023-08-01T05:13:24Z,42.805,6.029,13.3048,4.60103,2470.693,2023-8-01T07:15:42Z
2023-08-01T05:16:27Z,42.805,6.029,13.3046,4.60097,2470.684,2023-8-01T07:18:45Z
2023-08-01T05:19:30Z,42.805,6.029,13.3045,4.60107,2470.67,2023-8-01T07:21:49Z
2023-08-01T05:22:33Z,42.805,6.029,13.3045,4.60117,2470.693,2023-8-01T07:24:52Z
2023-08-01T05:25:37Z,42.805,6.029,13.3046,4.60107,2470.67,2023-8-01T07:27:55Z
2023-08-01T05:28:40Z,42.805,6.029,13.3042,4.60097,2470.661,2023-8-01T07:30:58Z
2023-08-01T05:31:43Z,42.805,6.029,13.3053,4.60111,2470.67,2023-8-01T07:34:01Z
2023-08-01T05:34:46Z,42.805,6.029,13.3053,4.60117,2470.707,2023-8-01T07:37:04Z
2023-08-01T05:37:49Z,42.805,6.029,13.3041,4.60121,2470.717,2023-8-01T07:40:07Z
2023-08-01T05:40:52Z,42.805,6.029,13.3043,4.60120,2470.717,2023-8-01T07:43:10Z
2023-08-01T05:43:55Z,42.805,6.029,13.3043,4.60117,2470.73,2023-8-01T07:46:13Z
2023-08-01T05:46:58Z,42.805,6.029,13.3051,4.60106,2470.73,2023-8-01T07:49:16Z
2023-08-01T05:50:01Z,42.805,6.029,13.3042,4.60108,2470.717,2023-8-01T07:52:19Z
2023-08-01T05:53:04Z,42.805,6.029,13.3035,4.60092,2470.73,2023-8-01T07:55:22Z
2023-08-01T05:56:07Z,42.805,6.029,13.3034,4.60106,2470.693,2023-8-01T07:58:25Z
2023-08-01T05:59:10Z,42.805,6.029,13.3048,4.60111,2470.693,2023-8-01T08:01:29Z
2023-08-01T06:02:14Z,42.805,6.029,13.3043,4.60113,2470.707,2023-8-01T08:04:32Z
2023-08-01T06:05:17Z,42.805,6.029,13.3036,4.60101,2470.646,2023-8-01T08:07:35Z
2023-08-01T06:08:20Z,42.805,6.029,13.3051,4.60104,2470.693,2023-8-01T08:10:38Z
2023-08-01T06:11:23Z,42.805,6.029,13.3041,4.60099,2470.707,2023-8-01T08:13:41Z
2023-08-01T06:14:26Z,42.805,6.029,13.3051,4.60109,2470.693,2023-8-01T08:16:44Z
2023-08-01T06:17:29Z,42.805,6.029,13.3038,4.60091,2470.693,2023-8-01T08:19:47Z
2023-08-01T06:20:32Z,42.805,6.029,13.3030,4.60089,2470.73,2023-8-01T08:22:50Z
2023-08-01T06:23:35Z,42.805,6.029,13.3040,4.60108,2470.693,2023-8-01T08:25:53Z
2023-08-01T06:26:38Z,42.805,6.029,13.3047,4.60101,2470.693,2023-8-01T08:28:56Z
2023-08-01T06:29:41Z,42.805,6.029,13.3039,4.60111,2470.693,2023-8-01T08:31:59Z
2023-08-01T06:32:44Z,42.805,6.029,13.3049,4.60130,2470.73,2023-8-01T08:35:02Z
2023-08-01T06:35:47Z,42.805,6.029,13.3060,4.60114,2470.693,2023-8-01T08:38:05Z
2023-08-01T06:38:50Z,42.805,6.029,13.3043,4.60158,2470.707,2023-8-01T08:41:08Z
2023-08-01T06:41:53Z,42.805,6.029,13.3061,4.60137,2470.693,2023-8-01T08:44:11Z
2023-08-01T06:44:56Z,42.805,6.029,13.3053,4.60141,2470.67,2023-8-01T08:47:14Z
2023-08-01T06:47:59Z,42.805,6.029,13.3054,4.60110,2470.707,2023-8-01T08:50:17Z
2023-08-01T06:51:02Z,42.805,6.029,13.3054,4.60124,2470.717,2023-8-01T08:53:20Z
2023-08-01T06:54:05Z,42.805,6.029,13.3048,4.60135,2470.693,2023-8-01T08:56:23Z
2023-08-01T06:57:08Z,42.805,6.029,13.3060,4.60140,2470.73,2023-8-01T08:59:26Z
2023-08-01T07:00:11Z,42.805,6.029,13.3048,4.60142,2470.67,2023-8-01T09:02:30Z
2023-08-01T07:03:14Z,42.805,6.029,13.3046,4.60161,2470.717,2023-8-01T09:05:33Z
2023-08-01T07:06:18Z,42.805,6.029,13.3054,4.60124,2470.707,2023-8-01T09:08:36Z
2023-08-01T07:09:21Z,42.805,6.029,13.3054,4.60135,2470.67,2023-8-01T09:11:39Z
2023-08-01T07:12:24Z,42.805,6.029,13.3048,4.60122,2470.693,2023-8-01T09:14:42Z
2023-08-01T07:15:27Z,42.805,6.029,13.3045,4.60134,2470.717,2023-8-01T09:17:45Z
2023-08-01T07:18:30Z,42.805,6.029,13.3039,4.60121,2470.693,2023-8-01T09:20:48Z
2023-08-01T07:21:33Z,42.805,6.029,13.3045,4.60147,2470.67,2023-8-01T09:23:51Z
2023-08-01T07:24:36Z,42.805,6.029,13.3051,4.60107,2470.717,2023-8-01T09:26:54Z
2023-08-01T07:27:39Z,42.805,6.029,13.3048,4.60137,2470.707,2023-8-01T09:29:57Z
2023-08-01T07:30:42Z,42.805,6.029,13.3043,4.60119,2470.717,2023-8-01T09:33:00Z
2023-08-01T07:33:45Z,42.805,6.029,13.3044,4.60129,2470.67,2023-8-01T09:36:03Z
2023-08-01T07:36:48Z,42.805,6.029,13.3046,4.60120,2470.67,2023-8-01T09:39:06Z
2023-08-01T07:39:51Z,42.805,6.029,13.3034,4.60125,2470.73,2023-8-01T09:42:10Z
2023-08-01T07:42:54Z,42.805,6.029,13.3041,4.60126,2470.717,2023-8-01T09:45:13Z
2023-08-01T07:45:58Z,42.805,6.029,13.3048,4.60147,2470.693,2023-8-01T09:48:16Z
2023-08-01T07:49:01Z,42.805,6.029,13.3050,4.60121,2470.707,2023-8-01T09:51:19Z
2023-08-01T07:52:04Z,42.805,6.029,13.3057,4.60137,2470.693,2023-8-01T09:54:22Z
2023-08-01T07:55:07Z,42.805,6.029,13.3041,4.60122,2470.67,2023-8-01T09:57:25Z
2023-08-01T07:58:10Z,42.805,6.029,13.3053,4.60115,2470.67,2023-8-01T10:00:28Z
2023-08-01T08:01:13Z,42.805,6.029,13.3040,4.60117,2470.693,2023-8-01T10:03:31Z
2023-08-01T08:04:16Z,42.805,6.029,13.3042,4.60125,2470.693,2023-8-01T10:06:34Z
2023-08-01T08:07:19Z,42.805,6.029,13.3042,4.60137,2470.684,2023-8-01T10:09:37Z
2023-08-01T08:10:22Z,42.805,6.029,13.3049,4.60127,2470.707,2023-8-01T10:12:40Z
2023-08-01T08:13:25Z,42.805,6.029,13.3046,4.60149,2470.646,2023-8-01T10:15:43Z
2023-08-01T08:16:28Z,42.805,6.029,13.3039,4.60129,2470.646,2023-8-01T10:18:46Z
2023-08-01T08:19:31Z,42.805,6.029,13.3039,4.60137,2470.67,2023-8-01T10:21:50Z
2023-08-01T08:22:35Z,42.805,6.029,13.3057,4.60140,2470.693,2023-8-01T10:24:53Z
2023-08-01T08:25:38Z,42.805,6.029,13.3038,4.60142,2470.67,2023-8-01T10:27:56Z
2023-08-01T08:28:41Z,42.805,6.029,13.3044,4.60135,2470.684,2023-8-01T10:30:59Z
2023-08-01T08:31:42Z,42.805,6.029,13.3041,4.60147,2470.661,2023-8-01T10:34:00Z
2023-08-01T08:34:45Z,42.805,6.029,13.3048,4.60130,2470.684,2023-8-01T10:37:04Z
2023-08-01T08:37:49Z,42.805,6.029,13.3046,4.60128,2470.684,2023-8-01T10:40:07Z
2023-08-01T08:40:52Z,42.805,6.029,13.3046,4.60140,2470.624,2023-8-01T10:43:10Z
2023-08-01T08:43:55Z,42.805,6.029,13.3047,4.60124,2470.693,2023-8-01T10:46:13Z
2023-08-01T08:46:58Z,42.805,6.029,13.3042,4.60133,2470.646,2023-8-01T10:49:16Z
2023-08-01T08:50:01Z,42.805,6.029,13.3044,4.60135,2470.684,2023-8-01T10:52:19Z
2023-08-01T08:53:04Z,42.805,6.029,13.3043,4.60124,2470.624,2023-8-01T10:55:22Z
2023-08-01T08:56:07Z,42.805,6.029,13.3042,4.60129,2470.67,2023-8-01T10:58:25Z
2023-08-01T08:59:10Z,42.805,6.029,13.3048,4.60126,2470.637,2023-8-01T11:01:28Z
2023-08-01T09:02:13Z,42.805,6.029,13.3043,4.60139,2470.624,2023-8-01T11:04:31Z
2023-08-01T09:05:16Z,42.805,6.029,13.3051,4.60135,2470.646,2023-8-01T11:07:34Z
2023-08-01T09:08:19Z,42.805,6.029,13.3052,4.60142,2470.661,2023-8-01T11:10:37Z
2023-08-01T09:11:22Z,42.805,6.029,13.3045,4.60143,2470.684,2023-8-01T11:13:41Z
2023-08-01T09:14:25Z,42.805,6.029,13.3047,4.60139,2470.637,2023-8-01T11:16:44Z
2023-08-01T09:17:29Z,42.805,6.029,13.3040,4.60132,2470.6,2023-8-01T11:19:47Z
2023-08-01T09:20:32Z,42.805,6.029,13.3043,4.60153,2470.624,2023-8-01T11:22:50Z
2023-08-01T09:23:35Z,42.805,6.029,13.3043,4.60150,2470.661,2023-8-01T11:25:53Z
2023-08-01T09:26:38Z,42.805,6.029,13.3050,4.60139,2470.661,2023-8-01T11:28:56Z
2023-08-01T09:29:41Z,42.805,6.029,13.3045,4.60144,2470.646,2023-8-01T11:31:59Z
2023-08-01T09:32:44Z,42.805,6.029,13.3046,4.60140,2470.646,2023-8-01T11:35:02Z
2023-08-01T09:35:47Z,42.805,6.029,13.3047,4.60149,2470.6,2023-8-01T11:38:05Z
2023-08-01T09:38:50Z,42.805,6.029,13.3048,4.60149,2470.614,2023-8-01T11:41:08Z
2023-08-01T09:41:53Z,42.805,6.029,13.3056,4.60137,2470.624,2023-8-01T11:44:11Z
2023-08-01T09:44:56Z,42.805,6.029,13.3055,4.60150,2470.6,2023-8-01T11:47:14Z
2023-08-01T09:47:59Z,42.805,6.029,13.3054,4.60137,2470.6,2023-8-01T11:50:17Z
2023-08-01T09:51:02Z,42.805,6.029,13.3055,4.60142,2470.637,2023-8-01T11:53:21Z
2023-08-01T09:54:06Z,42.805,6.029,13.3052,4.60144,2470.577,2023-8-01T11:56:24Z
2023-08-01T09:57:09Z,42.805,6.029,13.3048,4.60138,2470.6,2023-8-01T11:59:27Z
2023-08-01T10:00:12Z,42.805,6.029,13.3045,4.60150,2470.591,2023-8-01T12:02:30Z
2023-08-01T10:03:15Z,42.805,6.029,13.3048,4.60144,2470.577,2023-8-01T12:05:33Z
2023-08-01T10:06:18Z,42.805,6.029,13.3059,4.60132,2470.591,2023-8-01T12:08:36Z
2023-08-01T10:09:21Z,42.805,6.029,13.3046,4.60148,2470.577,2023-8-01T12:11:39Z
2023-08-01T10:12:24Z,42.805,6.029,13.3047,4.60133,2470.6,2023-8-01T12:14:42Z
2023-08-01T10:15:27Z,42.805,6.029,13.3041,4.60114,2470.614,2023-8-01T12:17:45Z
2023-08-01T10:18:30Z,42.805,6.029,13.3046,4.60127,2470.567,2023-8-01T12:20:48Z
2023-08-01T10:21:33Z,42.805,6.029,13.3039,4.60143,2470.577,2023-8-01T12:23:51Z
2023-08-01T10:24:36Z,42.805,6.029,13.3043,4.60128,2470.591,2023-8-01T12:26:54Z
2023-08-01T10:27:39Z,42.805,6.029,13.3051,4.60147,2470.577,2023-8-01T12:29:58Z
2023-08-01T10:30:41Z,42.805,6.029,13.3048,4.60130,2470.6,2023-8-01T12:32:59Z
2023-08-01T10:33:44Z,42.805,6.029,13.3046,4.60144,2470.6,2023-8-01T12:36:02Z
2023-08-01T10:36:47Z,42.805,6.029,13.3058,4.60134,2470.591,2023-8-01T12:39:05Z
2023-08-01T10:39:50Z,42.805,6.029,13.3048,4.60114,2470.6,2023-8-01T12:42:08Z
2023-08-01T10:42:53Z,42.805,6.029,13.3051,4.60135,2470.591,2023-8-01T12:45:11Z
2023-08-01T10:45:56Z,42.805,6.029,13.3044,4.60131,2470.577,2023-8-01T12:48:15Z
2023-08-01T10:48:59Z,42.805,6.029,13.3044,4.60127,2470.567,2023-8-01T12:51:18Z
2023-08-01T10:52:03Z,42.805,6.029,13.3034,4.60120,2470.577,2023-8-01T12:54:21Z
2023-08-01T10:55:06Z,42.805,6.029,13.3039,4.60119,2470.563,2023-8-01T12:57:24Z
2023-08-01T10:58:09Z,42.805,6.029,13.3041,4.60133,2470.53,2023-8-01T13:00:27Z
2023-08-01T11:01:12Z,42.805,6.029,13.3051,4.60118,2470.577,2023-8-01T13:03:30Z
2023-08-01T11:04:15Z,42.805,6.029,13.3051,4.60153,2470.577,2023-8-01T13:06:33Z
2023-08-01T11:07:18Z,42.805,6.029,13.3054,4.60135,2470.553,2023-8-01T13:09:36Z
2023-08-01T11:10:21Z,42.805,6.029,13.3047,4.60141,2470.577,2023-8-01T13:12:39Z
2023-08-01T11:13:24Z,42.805,6.029,13.3049,4.60129,2470.591,2023-8-01T13:15:42Z
2023-08-01T11:16:27Z,42.805,6.029,13.3037,4.60125,2470.567,2023-8-01T13:18:45Z
2023-08-01T11:19:30Z,42.805,6.029,13.3046,4.60140,2470.553,2023-8-01T13:21:48Z
2023-08-01T11:22:33Z,42.805,6.029,13.3047,4.60137,2470.53,2023-8-01T13:24:52Z
2023-08-01T11:25:36Z,42.805,6.029,13.3040,4.60134,2470.553,2023-8-01T13:27:55Z
2023-08-01T11:28:40Z,42.805,6.029,13.3041,4.60119,2470.544,2023-8-01T13:30:58Z
2023-08-01T11:31:43Z,42.805,6.029,13.3051,4.60141,2470.53,2023-8-01T13:34:01Z
2023-08-01T11:34:46Z,42.805,6.029,13.3039,4.60138,2470.544,2023-8-01T13:37:04Z
2023-08-01T11:37:49Z,42.805,6.029,13.3040,4.60149,2470.544,2023-8-01T13:40:07Z
2023-08-01T11:40:52Z,42.805,6.029,13.3051,4.60125,2470.567,2023-8-01T13:43:10Z
2023-08-01T11:43:55Z,42.805,6.029,13.3041,4.60123,2470.567,2023-8-01T13:46:13Z
2023-08-01T11:46:58Z,42.805,6.029,13.3052,4.60139,2470.544,2023-8-01T13:49:16Z
2023-08-01T11:50:01Z,42.805,6.029,13.3051,4.60155,2470.53,2023-8-01T13:52:19Z
2023-08-01T11:53:04Z,42.805,6.029,13.3043,4.60138,2470.553,2023-8-01T13:55:22Z
2023-08-01T11:56:07Z,42.805,6.029,13.3051,4.60144,2470.507,2023-8-01T13:58:25Z
2023-08-01T11:59:10Z,42.805,6.029,13.3046,4.60124,2470.591,2023-8-01T14:01:28Z
2023-08-01T12:02:13Z,42.805,6.029,13.3048,4.60144,2470.567,2023-8-01T14:04:32Z
2023-08-01T12:05:16Z,42.805,6.029,13.3043,4.60149,2470.553,2023-8-01T14:07:35Z
2023-08-01T12:08:20Z,42.805,6.029,13.3051,4.60159,2470.507,2023-8-01T14:10:38Z
2023-08-01T12:11:23Z,42.805,6.029,13.3043,4.60137,2470.553,2023-8-01T14:13:41Z
2023-08-01T12:14:26Z,42.805,6.029,13.3040,4.60135,2470.53,2023-8-01T14:16:44Z
2023-08-01T12:17:29Z,42.805,6.029,13.3051,4.60127,2470.53,2023-8-01T14:19:47Z
2023-08-01T12:20:32Z,42.805,6.029,13.3043,4.60125,2470.507,2023-8-01T14:22:50Z
2023-08-01T12:23:35Z,42.805,6.029,13.3043,4.60125,2470.553,2023-8-01T14:25:53Z
2023-08-01T12:26:38Z,42.805,6.029,13.3050,4.60143,2470.53,2023-8-01T14:28:56Z
2023-08-01T12:29:41Z,42.805,6.029,13.3081,4.60154,2470.52,2023-8-01T14:31:59Z
2023-08-01T12:32:44Z,42.805,6.029,13.3048,4.60169,2470.53,2023-8-01T14:35:02Z
2023-08-01T12:35:47Z,42.805,6.029,13.3045,4.60135,2470.507,2023-8-01T14:38:05Z
2023-08-01T12:38:50Z,42.805,6.029,13.3058,4.60146,2470.52,2023-8-01T14:41:08Z
2023-08-01T12:41:53Z,42.805,6.029,13.3071,4.60157,2470.507,2023-8-01T14:44:12Z
2023-08-01T12:44:57Z,42.805,6.029,13.3060,4.60147,2470.52,2023-8-01T14:47:15Z
2023-08-01T12:48:00Z,42.805,6.029,13.3061,4.60162,2470.53,2023-8-01T14:50:18Z
2023-08-01T12:51:03Z,42.805,6.029,13.3069,4.60156,2470.483,2023-8-01T14:53:21Z
2023-08-01T12:54:06Z,42.805,6.029,13.3054,4.60140,2470.507,2023-8-01T14:56:24Z
2023-08-01T12:57:09Z,42.805,6.029,13.3059,4.60168,2470.52,2023-8-01T14:59:27Z
2023-08-01T13:00:12Z,42.805,6.029,13.3059,4.60152,2470.544,2023-8-01T15:02:30Z
2023-08-01T13:03:15Z,42.805,6.029,13.3058,4.60155,2470.53,2023-8-01T15:05:33Z
2023-08-01T13:06:18Z,42.805,6.029,13.3047,4.60140,2470.516,2023-8-01T15:08:36Z
2023-08-01T13:09:21Z,42.805,6.029,13.3042,4.60128,2470.544,2023-8-01T15:11:39Z
2023-08-01T13:12:24Z,42.805,6.029,13.3044,4.60142,2470.52,2023-8-01T15:14:42Z
2023-08-01T13:15:27Z,42.805,6.029,13.3046,4.60125,2470.53,2023-8-01T15:17:45Z
2023-08-01T13:18:30Z,42.805,6.029,13.3045,4.60122,2470.567,2023-8-01T15:20:49Z
2023-08-01T13:21:34Z,42.805,6.029,13.3045,4.60145,2470.53,2023-8-01T15:23:52Z
2023-08-01T13:24:37Z,42.805,6.029,13.3046,4.60112,2470.507,2023-8-01T15:26:55Z
2023-08-01T13:27:40Z,42.805,6.029,13.3048,4.60157,2470.507,2023-8-01T15:29:58Z
2023-08-01T13:30:43Z,42.805,6.029,13.3079,4.60168,2470.544,2023-8-01T15:33:01Z
2023-08-01T13:33:46Z,42.805,6.029,13.3079,4.60178,2470.507,2023-8-01T15:36:04Z
2023-08-01T13:36:49Z,42.805,6.029,13.3069,4.60168,2470.483,2023-8-01T15:39:07Z
2023-08-01T13:39:52Z,42.805,6.029,13.3070,4.60166,2470.52,2023-8-01T15:42:10Z
2023-08-01T13:42:55Z,42.805,6.029,13.3041,4.60140,2470.507,2023-8-01T15:45:13Z
2023-08-01T13:45:58Z,42.805,6.029,13.3076,4.60164,2470.507,2023-8-01T15:48:16Z
2023-08-01T13:49:01Z,42.805,6.029,13.3073,4.60168,2470.52,2023-8-01T15:51:19Z
2023-08-01T13:52:04Z,42.805,6.029,13.3051,4.60152,2470.53,2023-8-01T15:54:22Z
2023-08-01T13:55:07Z,42.805,6.029,13.3060,4.60150,2470.507,2023-8-01T15:57:26Z
2023-08-01T13:58:10Z,42.805,6.029,13.3058,4.60176,2470.52,2023-8-01T16:00:29Z
2023-08-01T14:01:14Z,42.805,6.029,13.3068,4.60167,2470.52,2023-8-01T16:03:32Z
2023-08-01T14:04:17Z,42.805,6.029,13.3070,4.60166,2470.544,2023-8-01T16:06:35Z
2023-08-01T14:07:20Z,42.805,6.029,13.3048,4.60155,2470.507,2023-8-01T16:09:38Z
2023-08-01T14:10:23Z,42.805,6.029,13.3050,4.60146,2470.507,2023-8-01T16:12:41Z
2023-08-01T14:13:26Z,42.805,6.029,13.3049,4.60160,2470.52,2023-8-01T16:15:44Z
2023-08-01T14:16:29Z,42.805,6.029,13.3075,4.60144,2470.52,2023-8-01T16:18:47Z
2023-08-01T14:19:32Z,42.805,6.029,13.3058,4.60171,2470.544,2023-8-01T16:21:50Z
2023-08-01T14:22:35Z,42.805,6.029,13.3067,4.60146,2470.507,2023-8-01T16:24:53Z
2023-08-01T14:25:38Z,42.805,6.029,13.3078,4.60189,2470.544,2023-8-01T16:27:56Z
2023-08-01T14:28:41Z,42.805,6.029,13.3089,4.60149,2470.553,2023-8-01T16:30:59Z
2023-08-01T14:31:44Z,42.805,6.029,13.3061,4.60148,2470.544,2023-8-01T16:34:02Z
2023-08-01T14:34:47Z,42.805,6.029,13.3044,4.60174,2470.553,2023-8-01T16:37:05Z
2023-08-01T14:37:50Z,42.805,6.029,13.3061,4.60143,2470.544,2023-8-01T16:40:08Z
2023-08-01T14:40:53Z,42.805,6.029,13.3054,4.60155,2470.577,2023-8-01T16:43:11Z
2023-08-01T14:43:56Z,42.805,6.029,13.3056,4.60115,2470.53,2023-8-01T16:46:14Z
2023-08-01T14:46:59Z,42.805,6.029,13.3045,4.60155,2470.577,2023-8-01T16:49:17Z
2023-08-01T14:50:02Z,42.805,6.029,13.3059,4.60156,2470.567,2023-8-01T16:52:20Z
2023-08-01T14:53:05Z,42.805,6.029,13.3080,4.60152,2470.567,2023-8-01T16:55:23Z
2023-08-01T14:56:08Z,42.805,6.029,13.3063,4.60171,2470.553,2023-8-01T16:58:26Z
2023-08-01T14:59:11Z,42.805,6.029,13.3084,4.60142,2470.577,2023-8-01T17:01:30Z
2023-08-01T15:02:14Z,42.805,6.029,13.3089,4.60141,2470.577,2023-8-01T17:04:33Z
2023-08-01T15:05:18Z,42.805,6.029,13.3078,4.60117,2470.553,2023-8-01T17:07:36Z
2023-08-01T15:08:21Z,42.805,6.029,13.3061,4.60151,2470.577,2023-8-01T17:10:39Z
2023-08-01T15:11:24Z,42.805,6.029,13.3054,4.60167,2470.577,2023-8-01T17:13:42Z
2023-08-01T15:14:27Z,42.805,6.029,13.3072,4.60177,2470.591,2023-8-01T17:16:45Z